Regional Weather Roundup
Issued by NWS

Home | Current Version | Previous Version | Graphics & Text | Print | Product List | Glossary On
Versions: 1 2 3 4 5 6 7 8 9 10 11 12 13 14 15 16 17 18 19 20 21 22 23 24 25 26 27 28 29 30 31 32 33 34 35 36 37 38 39 40 41 42 43 44 45 46 47 48 49 50
000
ASUS43 KOAX 232302
RWRNE

WEATHER ROUNDUP FOR NEBRASKA
NATIONAL WEATHER SERVICE OMAHA NE
500 PM CST MON JAN 23 2017

NOTES: SATELLITE DATA IS BEING USED TO AUGMENT CLOUD COVER ABOVE
       12000 FEET.
       "FAIR" INDICATES FEW OR NO CLOUDS BELOW 12,000 FEET WITH NO
       SIGNIFICANT WEATHER AND/OR OBSTRUCTIONS TO VISIBILITY.

  * THESE STATIONS DO NOT REPORT WEATHER SUCH AS RAIN...SNOW OR FOG.

NEZ001>004-019>022-054>056-240000-
NEBRASKA PANHANDLE

CITY           SKY/WX    TMP DP  RH WIND       PRES   REMARKS
SCOTTSBLUFF    PTCLDY    43  26  51 N3        29.55R
ALLIANCE       MOCLDY    44  25  47 CALM      29.55R
CHADRON        CLOUDY    34  28  79 NE13      29.59R WCI  25
SIDNEY         CLOUDY    43  27  53 E5        29.56R
$$

NEZ057>060-069>072-079>082-240000-
SOUTHWEST NEBRASKA

CITY           SKY/WX    TMP DP  RH WIND       PRES   REMARKS
NORTH PLATTE   CLEAR     49  29  46 SE9       29.58S
IMPERIAL       CLEAR     50  27  40 NE3       29.56S
LEXINGTON      CLEAR     47  32  55 SE12      29.60F
MCCOOK         CLEAR     53  31  42 SE9       29.57S
OGALLALA       CLEAR     44  29  56 CALM      29.57R
$$

NEZ005>010-023>029-035>040-094-240000-
NORTH CENTRAL NEBRASKA

CITY           SKY/WX    TMP DP  RH WIND       PRES   REMARKS
VALENTINE      PTCLDY    45  27  49 SE9       29.60S
AINSWORTH      PTCLDY    40  31  69 SE9       29.62R WCI  34
BROKEN BOW     CLEAR     43  34  70 SE14G23   29.61S
O`NEILL        CLOUDY    34  30  85 E10       29.70R WCI  26
ORD            CLEAR     37  30  75 SE12      29.66R WCI  29
THEDFORD       CLEAR     47  30  51 S9        29.59R
$$

NEZ041-046>049-061>064-073>077-083>087-240000-
SOUTH CENTRAL NEBRASKA

CITY           SKY/WX    TMP DP  RH WIND       PRES   REMARKS
GRAND ISLAND   FOG       31  31 100 E10       29.71R VSB 1/2 WCI  22
AURORA         CLOUDY    32  32 100 SE13      29.71S FOG     WCI  22
HASTINGS       CLOUDY    36  33  89 E12       29.69R FOG     WCI  28
HEBRON         CLEAR     40  34  78 E12       29.71S WCI  33
HOLDREGE       CLOUDY    49  31  49 SE13G18   29.62S
KEARNEY *      CLEAR     39  34  81 E13       29.65  WCI  32
YORK           CLOUDY    36  34  93 SE9       29.73R WCI  29
$$

NEZ011>018-030>034-042>045-240000-
NORTHEAST NEBRASKA

CITY           SKY/WX    TMP DP  RH WIND       PRES   REMARKS
NORFOLK        CLOUDY    33  28  81 E14       29.73F WCI  23
ALBION         CLOUDY    37  32  82 SE14      29.70S WCI  28
BLAIR          MOCLDY    34  30  85 E9        29.78F WCI  27
FREMONT        CLOUDY    36  31  81 E8        29.78F WCI  30
TEKAMAH        MOCLDY    34  28  79 E7        29.81S WCI  28
WAYNE          CLOUDY    33  30  90 E12       29.78S WCI  24
$$

NEZ050>053-065>068-078-088>093-240000-
SOUTHEAST NEBRASKA

CITY           SKY/WX    TMP DP  RH WIND       PRES   REMARKS
LINCOLN        MOCLDY    36  31  82 SE9       29.78S WCI  29
OMAHA EPPLEY   MOCLDY    34  27  75 E8        29.81S WCI  27
BEATRICE       CLEAR     39  33  81 E9        29.76S WCI  32
FALLS CITY     CLOUDY    37  31  78 E8        29.81S WCI  31
NEBRASKA CITY  PTCLDY    33  29  85 E8        29.80F WCI  27
PLATTSMOUTH    CLOUDY    33  28  80 E9        29.80F WCI  25
$$

NEZ044-045-051>053-067-240000-
OMAHA AREA

CITY           SKY/WX    TMP DP  RH WIND       PRES   REMARKS
OMAHA EPPLEY   MOCLDY    34  27  75 E8        29.81S WCI  27
BLAIR          MOCLDY    34  30  85 E9        29.78F WCI  27
FREMONT        CLOUDY    36  31  81 E8        29.78F WCI  30
MILLARD        CLOUDY    37  31  79 E8        29.81S WCI  31
OFFUTT AFB     CLOUDY    32  32 100 E8        29.81S WCI  25
PLATTSMOUTH    CLOUDY    33  28  80 E9        29.80F WCI  25
WAHOO          CLOUDY    35  31  83 SE13      29.78S WCI  27
$$




USA.gov is the U.S. government's official web portal to all federal, state and local government web resources and services.